Regional Weather Roundup
Issued by NWS

Home | Current Version | Previous Version | Graphics & Text | Print | Product List | Glossary On
Versions: 1 2 3 4 5 6 7 8 9 10 11 12 13 14 15 16 17 18 19 20 21 22 23 24 25 26 27 28 29 30 31 32 33 34 35 36 37 38 39 40 41 42 43 44 45 46 47 48 49 50
000
ASUS43 KBIS 260002
RWRND

NORTH DAKOTA REGIONAL WEATHER ROUNDUP
NATIONAL WEATHER SERVICE BISMARCK ND
700 PM CDT MON JUL 25 2016

NOTE: "FAIR" INDICATES FEW OR NO CLOUDS BELOW 12,000 FEET WITH NO
SIGNIFICANT WEATHER AND/OR OBSTRUCTIONS TO VISIBILITY.


NDZ001>003-009>011-017-260100-
NORTHWEST NORTH DAKOTA

CITY           SKY/WX    TMP DP  RH WIND       PRES   REMARKS
WILLISTON      SUNNY     90  52  27 N10       29.97R
6HR MIN TEMP:  87; 6HR MAX TEMP:  92;

MINOT          SUNNY     88  66  48 N9        29.94S HX  90
MINOT AFB      SUNNY     85  64  49 NE8       29.94S
$$

NDZ018>021-031>035-040>046-260100-
SOUTHWEST NORTH DAKOTA

CITY           SKY/WX    TMP DP  RH WIND       PRES   REMARKS
BISMARCK       SUNNY     93  64  38 CALM      29.91S HX  94
6HR MIN TEMP:  86; 6HR MAX TEMP:  95;

DICKINSON      SUNNY     91  47  21 N7        29.94S
GARRISON         N/A     87  68  52 N8        29.94S HX  90
6HR MIN TEMP:  81; 6HR MAX TEMP:  89;

HETTINGER ARPT SUNNY     98  50  19 NE14      29.95S HX  95
$$

NDZ004>008-012>016-024-026-027-054-260100-
NORTHEAST NORTH DAKOTA

CITY           SKY/WX    TMP DP  RH WIND       PRES   REMARKS
GRAND FORKS    MOSUNNY   89  67  47 S6        29.89F HX  92
GRND FRKS AFB  MOSUNNY   87  68  51 S7        29.90F HX  91
DEVILS LAKE    SUNNY     84  70  62 NE10      29.92F
$$

NDZ022-023-025-028>030-036>039-047>053-260100-
SOUTHEAST NORTH DAKOTA

CITY           SKY/WX    TMP DP  RH WIND       PRES   REMARKS
FARGO          SUNNY     87  61  41 S10       29.92F
6HR MIN TEMP:  85; 6HR MAX TEMP:  91;

JAMESTOWN      SUNNY     88  69  53 S7        29.91F HX  92
$$





USA.gov is the U.S. government's official web portal to all federal, state and local government web resources and services.